Home   Weather   Alert   Past weeks

Flag for Canada Past Weather in Alert, Nunavut, Canada — Yesterday and Last 2 Weeks

Now
-3 °F

Frigid.


Feels Like: -26 °F
Forecast: -25 / -14 °F
Wind: 20 mph from East

Location: Kap Morris Jesup

Current Time: Dec 9, 2016 at 2:49:03 am

Latest Report: Dec 9, 2016 at 1:00 am


Visibility: N/A

Pressure: 29.70 "Hg

Humidity: 54%

Dew Point: -16 °F

Location of AlertLocation

Past Weather in Alert — Graph

°F

Alert Temperature Yesterday

Maximum temperature yesterday: -17 °F (at 10:00 pm)
Minimum temperature yesterday: -23 °F (at 2:00 pm)
Average temperature yesterday: -20 °F

High & Low Weather Summary for the Past Weeks

 TemperatureHumidityPressure
High16 °F (Dec 2, 11:00 am)89% (Dec 2, 9:00 pm)30.45 "Hg (Dec 2, 9:00 pm)
Low-24 °F (Dec 7, 6:00 pm)49% (Dec 6, 7:00 pm)29.50 "Hg (Dec 2, 9:00 am)
Average-9 °F74%30.08 "Hg
* Reported Nov 24 1:00 am — Dec 9 1:00 am, Alert, Weather by CustomWeather, © 2016

Note: Actual official high and low records may vary slightly from our data, if they occured in-between our weather recording intervals... More about our weather records

Advertising

Alert Weather History for the Previous 24 Hours

Scroll right to see more
 ConditionsComfort  
Time TempWeatherWind HumidityBarometerVisibility
1:00 am
Fri, Dec 9
-3 °FFrigid.20 mph54%29.70 "HgN/A
12:00 am-14 °FExtremely cold.3 mph71%29.73 "HgN/A
10:00 pm
Thu, Dec 8
-17 °FExtremely cold.9 mph74%29.78 "HgN/A
9:00 pm-18 °FExtremely cold.8 mph74%29.82 "HgN/A
8:00 pm-20 °FExtremely cold.14 mph73%29.84 "HgN/A
7:00 pm-21 °FExtremely cold.3 mph72%29.88 "HgN/A
6:00 pm-20 °FExtremely cold.7 mph72%29.91 "HgN/A
5:00 pm-20 °FExtremely cold.10 mph69%29.94 "HgN/A
4:00 pm-21 °FExtremely cold.10 mph70%29.98 "HgN/A
3:00 pm-23 °FExtremely cold.6 mph73%30.02 "HgN/A
2:00 pm-23 °FExtremely cold.6 mph71%30.05 "HgN/A
1:00 pm-21 °FExtremely cold.3 mph70%30.08 "HgN/A
10:00 am-19 °FExtremely cold.2 mph73%30.16 "HgN/A
9:00 am-18 °FExtremely cold.8 mph69%30.17 "HgN/A
8:00 am-18 °FExtremely cold.7 mph68%30.19 "HgN/A
7:00 am-18 °FExtremely cold.7 mph70%30.21 "HgN/A
6:00 am-19 °FExtremely cold.8 mph69%30.22 "HgN/A
5:00 am-20 °FExtremely cold.13 mph68%30.24 "HgN/A
4:00 am-20 °FExtremely cold.15 mph69%30.24 "HgN/A
3:00 am-21 °FExtremely cold.15 mph70%30.25 "HgN/A
2:00 am-20 °FExtremely cold.20 mph72%30.25 "HgN/A
Weather by CustomWeather, © 2016

See weather overviewHow to use our weather pages